Home   Weather   Gothenburg   Past weeks

Flag for Sweden Past Weather in Gothenburg, Sweden — Yesterday and Last 2 Weeks

Now
34 °F

Passing clouds.


Feels Like: 26 °F
Forecast: 27 / 36 °F
Wind: 10 mph from Southwest

Location: Gothenburg / Landvetter

Current Time: Jan 23, 2017 at 7:49:32 am

Latest Report: Jan 23, 2017 at 6:50 am


Visibility: N/A

Pressure: 30.09 "Hg

Humidity: 93%

Dew Point: 32 °F

Location of GothenburgLocation

Past Weather in Gothenburg — Graph

°F

Gothenburg Temperature Yesterday

Maximum temperature yesterday: 36 °F (at 10:20 am)
Minimum temperature yesterday: 30 °F (at 12:20 am)
Average temperature yesterday: 34 °F

High & Low Weather Summary for the Past Weeks

 TemperatureHumidityPressure
High45 °F (Jan 20, 11:50 am)100% (Jan 8, 7:20 am)30.51 "Hg (Jan 8, 7:20 am)
Low18 °F (Jan 16, 1:20 am)70% (Jan 11, 11:50 pm)28.77 "Hg (Jan 11, 5:20 pm)
Average33 °F93%29.95 "Hg
* Reported Jan 8 6:20 am — Jan 23 6:20 am, Gothenburg, Weather by CustomWeather, © 2017

Note: Actual official high and low records may vary slightly from our data, if they occured in-between our weather recording intervals... More about our weather records

Advertising

Gothenburg Weather History for the Previous 24 Hours

Scroll right to see more
 ConditionsComfort  
Time TempWeatherWind HumidityBarometerVisibility
6:20 am
Mon, Jan 23
34 °FOvercast.12 mph93%30.09 "HgN/A
5:50 am34 °FOvercast.12 mph100%30.12 "HgN/A
5:20 am34 °FOvercast.12 mph100%30.12 "HgN/A
4:50 am34 °FFog.12 mph100%30.12 "Hg4 mi
4:20 am34 °FFog.12 mph100%30.12 "Hg4 mi
3:50 am34 °FFog.13 mph100%30.12 "Hg2 mi
3:20 am34 °FFog.13 mph100%30.12 "Hg1 mi
2:50 am34 °FFog.13 mph100%30.15 "Hg1 mi
2:20 am34 °FFog.14 mph100%30.15 "Hg1 mi
1:20 am36 °FFog.15 mph93%30.15 "Hg2 mi
12:50 am36 °FFog.12 mph93%30.15 "Hg3 mi
11:50 pm
Sun, Jan 22
34 °FPassing clouds.10 mph100%30.18 "HgN/A
11:20 pm34 °FPartly cloudy.10 mph100%30.18 "HgN/A
10:50 pm34 °FMostly cloudy.10 mph100%30.18 "HgN/A
10:20 pm34 °FMostly cloudy.12 mph100%30.18 "HgN/A
9:50 pm34 °FMostly cloudy.9 mph100%30.21 "HgN/A
9:20 pm34 °FOvercast.10 mph100%30.21 "HgN/A
8:50 pm34 °FFog.10 mph100%30.21 "Hg3 mi
8:20 pm34 °FLow clouds.12 mph100%30.21 "HgN/A
7:50 pm34 °FFog.12 mph100%30.21 "Hg3 mi
7:20 pm34 °FFog.10 mph100%30.21 "Hg2 mi
6:50 pm34 °FFog.10 mph100%30.21 "Hg2 mi
6:20 pm34 °FFog.9 mph100%30.21 "Hg2 mi
5:50 pm34 °FMostly cloudy.10 mph100%30.24 "HgN/A
5:20 pm34 °FPassing clouds.10 mph100%30.24 "HgN/A
4:50 pm36 °FFog.12 mph93%30.24 "Hg4 mi
4:20 pm36 °FFog.10 mph93%30.24 "Hg3 mi
3:50 pm36 °FFog.10 mph93%30.24 "Hg2 mi
3:20 pm36 °FFog.12 mph100%30.24 "Hg4 mi
2:50 pm36 °FFog.10 mph100%30.27 "Hg5 mi
2:20 pm36 °FFog.10 mph100%30.27 "Hg5 mi
1:50 pm36 °FLow clouds.9 mph100%30.27 "HgN/A
1:20 pm36 °FMostly cloudy.9 mph100%30.27 "HgN/A
12:50 pm36 °FLow clouds.10 mph100%30.30 "HgN/A
12:20 pm36 °FMostly cloudy.12 mph100%30.30 "HgN/A
11:50 am36 °FMostly cloudy.8 mph100%30.30 "HgN/A
11:20 am36 °FFog.8 mph100%30.30 "Hg3 mi
10:50 am36 °FFog.8 mph100%30.30 "Hg2 mi
10:20 am36 °FFog.8 mph100%30.30 "Hg1 mi
9:50 am34 °FFog.6 mph100%30.33 "Hg1 mi
9:20 am34 °FFog.6 mph100%30.33 "Hg0 mi
8:50 am34 °FFog.7 mph93%30.30 "Hg0 mi
8:20 am34 °FFog.8 mph93%30.30 "Hg0 mi
7:50 am32 °FFog.8 mph100%30.30 "Hg0 mi
7:20 am32 °FIce fog.7 mph100%30.30 "Hg0 mi
Weather by CustomWeather, © 2017

See weather overviewHow to use our weather pages